Helicity
68 69 64 64 72 77 71 49 46 34 23 32 29 32 35 27 30 31 4 11 27 40 37 22 61 67 74 100 74 62 47 52 76 81 87 61 83 67 95 140 155 182 162 213 211 243 80 120 150 176 112 162 166 190
83 78 74 68 58 58 71 68 58 45 21 15 27 32 42 40 33 27 28 15 24 56 60 89 60 24 58 70 86 69 95 102 93 94 85 92 141 136 162 172 199 156 150 189 255 228 214 237 284 189 204 209 213 218
96 97 97 84 82 84 75 57 54 41 32 33 27 26 51 60 59 42 20 13 35 35 39 92 48 66 32 61 87 125 110 153 238 229 179 160 175 163 176 187 194 218 256 331 282 368 269 241 217 235 287 268 224 224
132 128 121 107 95 93 92 77 62 60 54 53 43 46 56 71 78 55 36 29 54 64 58 38 31 20 97 130 112 129 143 197 248 233 205 239 310 182 252 246 292 393 344 389 284 252 220 215 161 171 154 152 200 221
172 159 148 134 121 111 118 100 83 81 75 68 66 61 83 79 79 73 52 40 42 85 62 45 46 103 83 76 107 141 155 181 209 213 249 216 220 254 229 246 430 543 361 396 427 181 187 135 136 135 134 127 127 159
165 166 174 144 156 151 121 113 110 120 124 86 87 91 95 93 113 93 33 37 56 23 63 21 72 111 109 115 103 99 87 129 175 203 209 219 294 307 232 236 372 229 215 165 239 158 178 182 135 162 171 158 165 179
140 155 183 181 163 149 132 138 123 124 127 92 82 95 91 94 156 137 135 118 21 -10 56 50 49 95 65 63 89 126 156 166 210 268 300 278 296 252 329 306 249 116 119 131 113 108 99 141 161 159 173 161 156 151
127 120 124 134 127 112 132 123 106 100 81 67 68 74 84 88 130 125 150 136 105 135 133 140 187 201 125 85 100 113 137 191 208 275 376 335 291 322 344 381 216 112 75 97 96 125 133 153 145 215 238 232 167 125
84 74 80 87 96 92 88 79 68 66 61 64 78 78 95 115 120 116 130 153 178 209 228 284 261 76 162 166 167 128 67 82 156 264 272 218 332 239 295 244 144 142 142 141 141 166 152 116 100 172 183 150 134 117
56 56 62 68 73 70 68 68 69 68 58 66 77 95 107 102 82 87 108 136 168 243 363 312 334 218 182 129 98 83 110 160 215 170 171 214 222 69 188 105 48 67 81 77 101 119 156 162 121 184 130 101 93 87
50 53 60 64 67 73 76 82 84 102 102 109 114 125 115 93 98 109 143 208 157 162 19 -6 38 51 72 69 69 89 139 146 205 201 211 262 77 97 10 109 163 93 33 67 96 120 117 121 79 92 70 59 60 62
68 62 61 64 68 75 76 74 73 97 100 107 113 104 93 101 130 201 309 257 144 10 -12 -6 6 33 46 69 84 83 149 169 172 175 232 170 48 86 195 244 257 165 95 89 79 96 57 74 43 3 23 62 69 68
57 63 66 66 66 72 73 76 80 99 105 119 152 143 129 136 269 339 321 196 76 63 36 55 73 61 71 82 93 128 135 158 239 279 244 114 61 150 181 196 258 127 62 20 41 50 55 73 48 42 55 75 55 64
55 60 61 71 75 74 75 80 96 104 184 183 185 217 179 245 252 132 190 129 97 136 115 143 123 107 94 103 90 118 117 147 257 229 89 146 106 89 124 45 -37 2 -27 33 -8 12 98 120 74 67 82 82 80 83
43 43 51 59 66 68 73 74 70 121 204 252 234 278 267 265 273 227 193 196 178 153 195 191 177 149 118 121 148 200 224 283 233 155 185 121 124 109 104 103 -4 -17 42 41 48 49 56 64 70 117 156 141 134 128
62 60 79 47 60 52 40 74 141 150 240 318 351 394 355 346 285 271 251 204 175 180 201 199 163 134 135 213 230 258 360 346 358 254 156 52 3 -55 -119 -199 -112 -58 64 90 115 124 56 -15 -7 72 102 139 175 198
68 157 86 67 52 57 65 201 221 263 270 430 464 394 379 362 249 235 240 214 181 225 185 170 152 100 220 238 367 450 440 336 214 177 112 39 -18 -52 -38 -7 83 107 130 105 111 68 116 111 74 83 96 116 177 213
140 123 77 71 64 94 144 213 297 349 413 408 382 269 374 309 232 224 187 189 223 229 214 172 155 216 323 392 345 347 269 223 206 135 43 65 79 83 144 160 147 143 160 169 167 162 179 160 163 122 111 139 193 216
107 118 80 57 95 179 212 258 400 460 387 375 308 244 258 257 222 204 222 219 226 244 170 138 129 296 319 312 248 216 180 180 163 138 111 98 107 135 130 125 150 186 181 176 169 183 181 189 171 148 125 170 193 208
43 47 54 57 83 186 246 301 341 463 445 380 331 206 269 237 161 172 158 198 249 235 248 295 268 254 242 215 195 208 206 180 144 82 89 82 105 93 109 108 111 135 156 181 224 199 215 207 183 143 146 167 184 168
72 81 71 80 139 168 184 211 287 341 389 429 315 310 276 281 204 175 174 220 256 321 266 260 238 224 202 211 208 193 189 193 191 171 158 129 144 98 113 89 91 139 163 194 207 188 184 250 172 151 179 165 174 186
119 75 141 129 175 167 179 222 204 354 432 378 324 315 300 271 258 270 289 266 300 271 315 285 289 272 242 210 215 197 209 192 175 169 139 163 179 105 100 108 128 146 194 213 175 186 198 180 184 176 176 159 124 141
95 111 151 167 153 149 136 203 331 448 530 429 403 342 349 369 326 331 292 302 312 286 293 268 244 234 250 234 219 209 214 202 202 200 222 209 161 167 164 159 186 187 186 155 166 176 180 160 169 167 173 158 156 142
108 142 166 169 170 142 188 253 345 377 462 433 331 387 406 323 329 329 299 290 286 247 216 222 273 258 223 225 274 277 270 244 200 180 197 168 175 187 229 207 189 211 234 204 165 168 160 165 154 161 167 157 134 103
131 94 192 209 242 226 287 268 286 311 360 365 362 382 336 294 269 285 305 239 210 194 193 211 213 252 217 161 178 222 166 137 148 135 136 154 160 200 176 148 149 175 195 186 223 168 166 180 150 116 98 94 24 42
118 115 170 220 295 264 198 289 343 359 339 311 272 242 269 273 304 294 258 192 150 158 142 163 165 141 150 151 48 30 4 42 115 124 198 126 138 154 108 59 61 126 231 268 251 244 187 170 172 143 112 49 -1 18
102 115 152 253 225 234 237 243 258 238 223 253 261 268 264 273 243 299 251 229 208 194 177 157 118 124 85 58 4 36 24 49 90 103 134 89 56 100 151 71 94 214 209 285 304 283 257 191 168 154 119 46 24 91
132 115 178 211 215 196 280 308 265 240 250 271 308 326 305 313 307 314 313 243 211 179 199 152 95 71 9 12 1 9 51 77 52 58 77 54 68 89 120 119 127 137 170 187 258 291 280 207 181 159 127 90 89 72
254 158 195 188 293 257 255 280 314 348 369 353 258 214 284 335 260 231 191 147 133 141 112 94 98 78 57 62 60 77 91 92 38 -15 1 -19 -25 22 89 114 111 108 123 174 200 216 190 193 157 117 92 62 63 80
259 355 381 340 317 289 314 324 283 245 251 263 259 213 186 -7 -36 115 99 120 166 134 106 115 77 70 126 107 77 50 77 82 103 97 -26 -37 2 14 61 95 79 69 121 162 199 237 197 216 218 138 122 113 104 98
239 297 308 338 303 266 285 261 293 231 237 251 292 307 -14 -60 -23 41 96 117 147 118 101 129 122 106 99 129 155 116 72 78 99 80 45 26 22 38 80 13 94 136 173 186 221 212 225 202 211 143 108 86 76 87
307 292 286 270 230 235 311 242 246 213 156 174 120 143 36 65 -98 -42 52 127 117 91 103 139 104 130 142 149 112 110 115 136 121 119 73 96 74 28 -6 -12 155 205 218 219 240 213 201 226 180 105 91 80 80 68
403 353 291 218 215 175 262 292 225 180 219 162 10 88 106 104 44 43 167 262 284 281 207 175 164 154 130 75 84 110 105 125 96 64 51 42 46 20 90 166 191 225 240 233 223 207 215 199 137 111 107 102 76 70
Wind_Speed
45 43 44 45 45 44 44 46 49 52 54 54 54 53 55 58 59 52 46 49 41 36 16 18 27 19 25 28 13 25 26 23 25 24 25 22 21 23 25 24 26 20 21 20 12 15 17 23 28 26 32 38 32 28
44 44 44 46 47 47 47 48 49 50 53 54 53 51 48 52 55 54 50 48 47 34 29 32 19 14 17 17 25 20 25 25 18 21 18 15 18 11 16 24 14 17 6 16 6 15 15 14 23 23 35 34 31 29
45 45 46 47 47 48 49 50 50 50 51 53 55 54 47 47 51 52 53 52 49 49 51 35 34 32 31 18 22 20 25 20 24 25 27 29 21 25 26 22 19 25 14 16 28 23 33 29 28 30 32 32 32 34
47 48 48 48 50 50 51 52 51 50 51 53 55 56 49 45 46 49 54 52 51 50 50 39 32 39 43 43 33 30 31 31 28 27 23 26 34 26 31 24 32 34 35 39 34 39 36 35 30 34 34 37 37 36
47 49 50 51 53 53 54 54 54 51 52 55 57 57 54 44 46 50 54 53 46 45 50 59 65 51 41 38 40 37 31 33 35 36 35 39 36 42 44 45 34 30 33 35 40 40 39 40 43 41 41 41 41 41
51 51 53 54 57 60 58 55 55 54 57 59 55 54 54 47 43 54 59 45 39 42 60 65 51 54 51 45 35 32 33 35 35 38 42 38 35 40 52 53 51 40 32 31 42 46 44 46 50 44 41 42 40 39
54 53 54 55 54 54 54 54 55 56 56 54 51 51 51 48 42 51 54 46 40 48 59 70 63 48 41 39 42 46 41 43 43 47 46 47 44 38 51 57 58 58 56 58 57 62 61 53 52 45 40 41 42 41
53 54 51 50 48 50 50 52 54 54 53 53 53 54 52 41 48 54 51 42 41 53 54 58 62 61 44 53 55 47 50 48 49 51 50 53 51 48 67 62 70 71 74 72 70 66 65 65 62 55 46 44 46 47
53 53 51 46 46 47 48 48 50 50 49 51 45 45 47 46 50 51 46 42 46 50 59 57 67 75 51 57 54 53 52 62 52 55 55 50 53 60 58 69 75 81 80 86 84 75 69 68 65 56 50 51 53 52
52 51 50 48 46 48 47 47 50 50 47 39 48 51 53 46 40 42 53 56 53 55 59 74 68 77 58 60 62 61 55 59 64 58 49 57 66 58 73 77 82 88 90 86 91 90 77 70 65 60 53 53 52 52
53 50 49 48 46 45 46 47 47 40 35 45 51 53 47 43 50 52 58 56 54 62 57 57 57 63 48 62 62 54 59 59 68 61 57 66 72 63 59 69 80 86 84 80 77 78 73 65 61 55 52 56 55 54
54 52 49 46 44 43 42 42 40 41 42 42 42 42 45 51 54 57 58 53 56 62 50 54 55 47 49 44 55 56 62 58 71 54 66 72 62 69 72 80 88 85 80 77 73 71 61 51 46 47 53 58 53 47
53 49 46 43 42 40 38 36 35 33 30 39 48 53 54 51 63 65 66 63 63 55 49 47 55 51 50 48 56 59 69 72 59 70 77 78 64 65 69 77 86 82 78 75 73 68 61 57 56 54 54 56 55 48
53 51 48 44 40 37 36 34 31 28 37 47 55 69 63 61 62 59 59 60 56 57 51 49 56 56 53 54 56 67 63 62 75 79 81 73 50 50 68 80 90 96 89 82 77 70 67 64 64 64 64 59 63 58
59 55 51 48 44 41 39 36 31 33 38 51 53 73 73 63 62 63 59 60 55 45 47 54 56 53 59 67 63 66 70 76 70 79 67 49 56 71 89 100 98 99 93 85 82 83 81 80 79 82 76 69 57 56
63 64 61 53 47 43 40 38 36 39 44 52 59 71 64 70 71 67 64 63 50 48 49 56 66 71 74 66 71 76 80 88 81 69 73 75 91 99 105 110 103 106 98 95 93 88 96 94 94 92 88 74 65 62
64 65 55 53 48 43 38 41 42 52 56 62 74 67 69 68 67 62 56 58 47 52 68 65 75 75 63 74 84 72 86 85 83 87 85 95 106 123 120 110 106 105 100 96 96 98 103 101 98 99 102 93 79 73
66 57 52 51 49 49 50 46 52 57 73 71 77 77 72 71 76 77 75 68 65 69 72 82 78 88 94 101 100 87 91 94 90 98 111 114 109 110 105 107 100 95 91 91 94 93 93 95 98 100 99 95 83 76
64 60 56 50 49 51 54 55 54 73 76 72 76 79 77 78 74 77 77 72 69 70 72 73 77 81 84 83 90 93 93 97 103 101 102 108 103 106 106 103 96 90 91 96 92 89 86 83 86 95 96 87 90 84
66 64 61 55 50 56 60 61 50 67 78 74 73 77 78 80 81 81 84 82 78 80 92 96 103 105 107 111 108 108 105 105 113 124 119 111 104 101 102 96 93 96 97 93 86 83 85 86 86 92 89 87 87 89
68 68 65 59 61 66 64 54 54 57 61 69 69 72 79 71 74 78 82 76 76 84 95 93 99 101 101 103 104 106 106 103 106 104 107 111 107 104 105 100 99 96 91 88 85 84 78 75 86 85 82 83 83 84
62 56 57 55 64 62 70 61 57 50 54 61 62 61 71 77 77 74 69 75 80 79 80 88 92 94 100 102 100 97 96 96 96 98 101 99 101 103 103 95 94 93 88 82 83 78 73 74 74 74 75 84 87 88
57 56 56 56 63 66 70 46 57 57 65 65 62 68 73 74 72 64 75 78 81 78 81 86 91 91 94 97 97 98 95 96 99 98 97 96 92 87 91 92 80 77 82 85 75 73 74 70 67 70 76 79 83 86
53 55 58 56 56 63 48 52 55 60 57 59 60 70 66 65 62 67 83 84 78 81 81 81 84 94 96 90 86 85 87 83 84 86 85 89 89 90 80 78 69 58 56 64 70 73 75 72 65 67 69 77 81 85
55 58 55 56 50 55 61 58 59 59 64 55 61 67 66 60 74 80 80 83 83 85 88 89 84 76 78 90 90 92 91 82 78 91 98 77 77 86 84 80 36 46 55 62 68 70 69 63 59 60 64 68 81 81
47 52 51 45 51 58 58 65 65 65 66 67 67 66 61 70 79 79 78 81 80 84 82 82 78 77 74 74 84 78 69 69 78 74 79 73 72 75 86 84 83 76 54 46 47 50 51 53 51 54 56 75 77 77
54 50 48 47 44 42 47 51 54 61 62 67 69 67 69 77 79 76 74 68 76 78 73 76 76 72 88 92 79 81 88 85 80 81 84 82 82 81 78 77 79 51 64 50 39 36 42 51 45 39 50 69 68 42
44 34 38 42 52 57 65 64 58 61 65 62 67 75 79 83 92 71 67 82 78 79 74 82 92 94 94 91 91 93 93 91 90 85 83 87 87 88 86 39 31 37 25 34 27 29 29 34 31 28 45 51 49 27
25 25 29 41 51 58 63 65 68 67 68 72 88 98 93 79 56 57 87 95 94 87 92 95 97 92 95 95 95 93 91 89 88 92 91 88 86 85 77 66 56 52 53 41 32 33 31 36 30 24 42 47 30 25
45 36 52 63 62 66 71 68 79 79 75 76 83 96 103 93 85 103 102 95 89 94 100 101 100 94 102 101 101 98 93 90 87 90 90 86 85 84 77 67 71 70 57 44 43 38 36 34 34 33 34 35 31 30
38 33 44 47 53 54 59 70 73 76 75 75 73 79 89 107 114 104 96 95 95 98 98 101 101 102 100 99 97 97 98 87 83 85 89 88 87 84 80 80 75 58 45 42 34 27 29 30 28 26 28 34 33 26
52 49 50 53 53 47 57 61 60 55 57 76 102 100 107 106 103 109 104 98 101 105 104 102 100 98 92 88 87 86 89 88 89 85 87 86 85 81 74 72 59 39 32 30 27 23 26 25 24 23 26 32 27 24
39 36 38 40 38 36 49 64 70 72 73 93 90 76 72 69 81 89 82 69 63 61 93 96 88 88 90 90 88 87 85 83 84 87 88 86 83 82 71 53 39 33 27 19 17 14 16 18 16 17 22 19 18 17
Wind_Direction
297 302 307 311 317 324 331 336 340 342 344 349 353 357 356 351 345 353 2 4 17 9 40 57 16 20 356 357 55 24 27 52 38 32 29 34 31 28 17 16 11 8 12 8 21 2 0 23 14 2 357 354 357 358
295 298 302 306 310 315 320 326 330 333 336 339 344 347 354 346 343 342 340 346 348 3 360 358 9 22 23 18 358 11 3 19 57 38 43 53 24 35 14 358 25 6 35 10 350 339 338 340 330 331 340 341 343 340
293 297 301 305 308 310 313 318 322 326 330 333 334 336 343 344 335 334 331 332 340 339 334 343 352 0 5 4 350 350 344 346 348 355 354 351 348 356 349 349 343 342 313 298 337 315 272 283 290 299 314 316 322 323
291 295 299 303 305 308 311 312 316 319 322 326 329 330 332 336 336 329 323 325 329 326 328 338 342 335 337 333 332 322 327 340 346 344 338 337 334 346 340 331 322 321 332 325 291 286 292 288 298 305 303 312 310 309
291 293 297 301 302 304 307 309 311 314 317 319 322 323 325 326 328 325 318 319 320 321 315 312 311 324 335 333 327 323 318 317 319 322 323 323 332 328 326 327 306 313 318 316 312 320 315 314 325 332 330 330 330 329
288 291 295 298 299 300 302 305 307 308 311 314 318 320 321 321 323 321 311 317 320 321 315 311 318 319 323 326 330 325 325 322 315 319 318 322 324 327 325 328 330 332 323 309 307 318 315 317 320 322 319 320 322 322
288 290 293 296 299 300 303 304 305 307 310 314 317 319 319 319 316 311 307 312 318 318 312 305 307 317 328 329 324 320 321 317 313 311 310 313 319 318 317 318 331 334 329 326 323 321 317 316 315 318 316 319 321 320
287 290 293 297 300 301 303 305 306 308 308 309 312 314 317 319 314 308 310 311 313 311 310 304 302 308 322 313 312 318 314 314 313 310 314 311 314 310 309 306 314 319 321 320 320 318 312 313 312 310 312 316 318 317
286 288 292 298 301 303 304 305 307 311 311 307 313 316 318 316 312 311 317 317 310 302 302 300 300 303 313 311 314 314 311 306 310 305 308 312 308 310 311 318 319 320 319 317 317 316 315 314 313 312 310 312 312 315
284 286 290 295 299 300 303 306 307 309 311 313 310 309 308 314 325 324 313 305 303 299 297 295 298 295 304 307 307 309 310 307 305 307 314 307 305 303 308 311 314 316 316 316 315 315 315 311 310 310 309 311 313 315
284 286 289 292 295 299 301 304 309 316 315 309 305 304 312 319 315 311 304 302 304 302 304 306 302 297 306 300 302 306 307 309 306 310 309 311 314 321 330 327 327 326 324 322 319 317 314 310 310 310 312 316 316 316
284 286 287 290 293 296 299 302 305 307 308 310 311 316 315 309 305 302 300 304 301 304 308 307 306 309 311 314 304 305 303 306 302 311 308 309 317 323 325 328 331 333 335 333 332 330 330 328 321 315 315 319 320 320
283 285 287 289 291 294 296 297 301 307 312 312 306 303 303 301 292 294 293 298 301 305 307 309 307 310 312 311 305 305 300 298 310 303 303 305 312 320 328 333 334 337 334 333 333 333 332 331 327 322 320 319 318 320
281 283 284 286 287 289 291 292 295 298 303 296 292 288 289 292 295 294 295 302 303 306 305 306 306 306 307 305 305 302 303 305 300 301 305 312 314 324 330 331 330 326 325 324 324 328 330 329 325 322 316 316 311 314
277 278 279 280 282 283 285 286 283 286 290 288 289 285 284 289 294 300 299 301 309 311 305 305 305 305 302 299 300 300 299 296 299 303 312 318 317 318 318 321 323 323 320 320 318 318 318 317 316 314 313 311 312 312
275 276 274 275 275 276 277 279 281 280 285 282 283 285 290 292 292 294 297 299 305 302 305 305 300 299 294 295 292 291 294 294 301 306 309 310 310 310 312 314 314 315 313 312 312 311 310 309 309 309 307 308 307 305
274 273 274 273 270 271 268 275 276 273 281 278 277 279 283 291 293 295 298 301 302 298 295 298 294 292 300 294 290 293 293 298 303 304 305 306 308 306 308 311 311 311 311 310 311 309 305 305 305 304 302 304 303 300
270 274 269 271 272 272 269 265 270 274 272 275 280 279 282 284 286 288 290 292 291 289 291 289 292 286 285 287 288 293 297 300 300 300 301 303 306 307 310 310 310 311 311 312 312 310 309 308 305 302 302 300 301 300
271 272 268 265 265 271 271 269 264 272 270 276 276 280 282 285 286 287 287 288 287 290 291 292 290 289 287 290 292 295 297 298 299 300 302 304 305 306 307 309 310 311 311 312 313 312 311 310 307 303 299 298 297 298
271 270 269 264 257 268 270 273 271 269 272 275 278 278 281 283 286 287 287 287 287 288 284 282 282 285 287 289 291 292 294 295 295 297 298 300 303 304 306 307 309 311 311 312 313 312 312 311 308 301 298 296 296 296
272 269 270 263 263 259 268 275 274 274 277 276 277 276 282 288 287 287 289 292 289 284 286 287 288 289 290 291 292 292 292 293 292 294 296 298 300 301 304 304 308 310 311 313 313 314 314 313 310 306 302 299 297 295
271 270 269 262 263 267 266 263 275 275 275 281 284 281 284 284 286 289 296 290 288 288 291 292 292 293 293 292 292 292 292 293 293 294 295 296 298 299 300 304 307 309 312 314 314 314 315 316 315 310 305 299 296 295
269 269 267 261 264 265 268 265 266 265 269 276 282 283 286 288 291 298 290 291 292 295 295 295 295 295 294 294 293 292 291 291 292 293 295 295 297 297 299 301 308 312 315 314 317 317 316 318 317 314 309 304 299 296
267 265 261 264 257 266 269 269 267 268 272 275 281 285 289 291 298 293 292 293 297 300 299 299 299 297 297 297 295 295 295 295 296 296 295 295 294 291 298 303 310 315 320 323 322 320 319 322 324 320 316 309 301 293
262 262 258 260 259 261 261 264 267 272 275 276 279 285 292 298 294 294 294 298 300 299 299 299 299 300 301 297 293 287 279 298 298 290 281 292 290 284 291 298 308 317 321 320 322 321 321 325 328 328 324 316 296 297
260 256 266 257 257 263 267 267 267 268 276 279 282 289 295 294 292 295 299 300 301 301 299 300 297 297 300 302 277 275 273 274 283 292 273 287 293 294 286 275 273 272 326 326 326 329 329 329 329 329 326 308 299 303
267 270 270 271 271 271 272 274 278 277 278 280 285 288 290 291 292 296 303 304 302 299 302 300 295 297 291 277 258 255 272 279 288 286 278 278 275 282 292 263 268 262 325 330 328 325 329 332 331 332 329 305 299 333
273 270 257 263 270 271 275 279 279 279 281 286 289 284 286 288 290 297 299 298 301 301 301 296 288 285 274 267 269 272 280 285 285 284 289 279 276 280 288 250 261 260 295 328 324 330 332 335 338 345 330 323 328 359
264 277 278 273 276 279 275 277 278 280 283 285 284 282 284 287 276 291 294 290 290 295 293 289 282 283 276 274 273 273 279 284 281 271 268 268 271 281 299 307 317 325 330 336 338 341 345 347 349 354 333 323 353 6
279 273 276 278 278 278 280 282 284 286 287 285 286 285 283 258 249 279 279 285 290 288 283 283 282 283 276 276 274 275 280 278 278 276 262 261 265 282 296 309 306 311 325 334 335 341 351 356 352 352 345 343 355 359
296 287 284 280 283 285 286 289 290 289 288 289 290 288 250 260 268 275 279 281 284 284 282 277 275 276 281 277 277 277 274 280 281 278 269 261 266 279 291 278 297 316 325 330 336 342 350 351 352 354 353 342 345 357
287 281 283 287 287 286 297 297 295 291 293 293 281 285 269 273 255 266 268 278 278 272 260 265 269 266 278 282 282 281 278 276 276 280 272 271 267 264 260 264 308 321 326 330 332 335 339 350 347 349 345 337 343 353
306 293 282 281 276 263 291 293 292 294 294 283 252 247 246 245 248 257 283 291 290 290 273 262 281 282 277 275 277 280 282 281 278 275 273 278 279 275 291 308 315 319 323 328 329 338 351 352 358 2 354 359 6 15